Time,TemperatureF,DewpointF,PressureIn,WindDirection,WindDirectionDegrees,WindSpeedMPH,WindSpeedGustMPH,Humidity,HourlyPrecipIn,Conditions,Clouds,dailyrainin,SolarRadiationWatts/m^2,SoftwareType,DateUTC
2013-07-12 00:02:00,50.0,47.0,-100.00,WNW,286,0.0,9.0,90,0.00,,,0.00,1.000000,,2013-07-12 07:02:00,
2013-07-12 00:12:00,50.0,47.0,-100.00,WNW,286,0.0,9.0,90,0.00,,,0.00,1.000000,,2013-07-12 07:12:00,
2013-07-12 00:22:00,50.0,47.0,-100.00,WNW,286,0.0,9.0,90,0.00,,,0.00,1.000000,,2013-07-12 07:22:00,
2013-07-12 00:32:00,50.0,47.0,-100.00,WNW,286,0.0,9.0,90,0.00,,,0.00,1.000000,,2013-07-12 07:32:00,
2013-07-12 01:01:00,50.0,48.0,-100.00,NW,315,0.0,8.0,92,0.00,,,0.00,1.000000,,2013-07-12 08:01:00,
2013-07-12 01:11:00,50.0,48.0,-100.00,NW,315,0.0,8.0,92,0.00,,,0.00,1.000000,,2013-07-12 08:11:00,
2013-07-12 01:21:00,50.0,48.0,-100.00,NW,315,0.0,8.0,92,0.00,,,0.00,1.000000,,2013-07-12 08:21:00,
2013-07-12 01:32:00,50.0,48.0,-100.00,NW,315,0.0,8.0,92,0.00,,,0.00,1.000000,,2013-07-12 08:32:00,
2013-07-12 01:53:00,49.0,47.0,-100.00,NW,307,0.0,7.0,94,0.00,,,0.00,0.000000,,2013-07-12 08:53:00,
2013-07-12 02:02:00,49.0,47.0,-100.00,NW,307,0.0,7.0,94,0.00,,,0.00,0.000000,,2013-07-12 09:02:00,
2013-07-12 02:12:00,49.0,47.0,-100.00,NW,307,0.0,7.0,94,0.00,,,0.00,0.000000,,2013-07-12 09:12:00,
2013-07-12 02:22:00,49.0,47.0,-100.00,NW,307,0.0,7.0,94,0.00,,,0.00,0.000000,,2013-07-12 09:22:00,
2013-07-12 02:32:00,49.0,47.0,-100.00,NW,307,0.0,7.0,94,0.00,,,0.00,0.000000,,2013-07-12 09:32:00,
2013-07-12 02:33:00,50.0,49.0,-100.00,West,274,0.0,1.0,95,0.00,,,0.00,1.000000,,2013-07-12 09:33:00,
2013-07-12 03:01:00,50.0,49.0,-100.00,West,274,0.0,1.0,95,0.00,,,0.00,1.000000,,2013-07-12 10:01:00,
2013-07-12 03:11:00,50.0,49.0,-100.00,West,274,0.0,1.0,95,0.00,,,0.00,1.000000,,2013-07-12 10:11:00,
2013-07-12 03:22:00,50.0,49.0,-100.00,West,274,0.0,1.0,95,0.00,,,0.00,1.000000,,2013-07-12 10:22:00,
2013-07-12 04:02:00,49.0,48.0,-100.00,SW,222,0.0,0.0,95,0.00,,,0.00,0.000000,,2013-07-12 11:02:00,
2013-07-12 04:11:00,49.0,48.0,-100.00,SW,222,0.0,0.0,95,0.00,,,0.00,0.000000,,2013-07-12 11:11:00,
2013-07-12 04:22:00,49.0,48.0,-100.00,SW,222,0.0,0.0,95,0.00,,,0.00,0.000000,,2013-07-12 11:22:00,
2013-07-12 04:32:00,49.0,48.0,-100.00,SW,222,0.0,0.0,95,0.00,,,0.00,0.000000,,2013-07-12 11:32:00,
2013-07-12 04:53:00,49.0,48.0,-100.00,East,89,0.0,0.0,95,0.00,,,0.00,1.000000,,2013-07-12 11:53:00,
2013-07-12 05:01:00,49.0,48.0,-100.00,East,89,0.0,0.0,95,0.00,,,0.00,1.000000,,2013-07-12 12:01:00,
2013-07-12 05:11:00,49.0,48.0,-100.00,East,89,0.0,0.0,95,0.00,,,0.00,1.000000,,2013-07-12 12:11:00,
2013-07-12 05:22:00,49.0,48.0,-100.00,East,89,0.0,0.0,95,0.00,,,0.00,1.000000,,2013-07-12 12:22:00,
2013-07-12 05:32:00,49.0,48.0,-100.00,East,89,0.0,0.0,95,0.00,,,0.00,1.000000,,2013-07-12 12:32:00,
2013-07-12 05:52:00,49.0,48.0,-100.00,West,260,0.0,0.0,96,0.00,,,0.00,0.000000,,2013-07-12 12:52:00,
2013-07-12 06:01:00,49.0,48.0,-100.00,West,260,0.0,0.0,96,0.00,,,0.00,0.000000,,2013-07-12 13:01:00,
2013-07-12 06:12:00,49.0,48.0,-100.00,West,260,0.0,0.0,96,0.00,,,0.00,0.000000,,2013-07-12 13:12:00,
2013-07-12 06:22:00,49.0,48.0,-100.00,West,260,0.0,0.0,96,0.00,,,0.00,0.000000,,2013-07-12 13:22:00,
2013-07-12 06:32:00,49.0,48.0,-100.00,West,260,0.0,0.0,96,0.00,,,0.00,0.000000,,2013-07-12 13:32:00,
2013-07-12 07:02:00,49.0,48.0,-100.00,WSW,243,0.0,0.0,96,0.00,,,0.00,6.000000,,2013-07-12 14:02:00,
2013-07-12 07:11:00,49.0,48.0,-100.00,WSW,243,0.0,0.0,96,0.00,,,0.00,6.000000,,2013-07-12 14:11:00,
2013-07-12 07:22:00,49.0,48.0,-100.00,WSW,243,0.0,0.0,96,0.00,,,0.00,6.000000,,2013-07-12 14:22:00,
2013-07-12 07:32:00,49.0,48.0,-100.00,WSW,243,0.0,0.0,96,0.00,,,0.00,6.000000,,2013-07-12 14:32:00,
2013-07-12 07:33:00,49.0,48.0,-100.00,West,259,0.0,0.0,96,0.00,,,0.00,41.000000,,2013-07-12 14:33:00,
2013-07-12 08:01:00,49.0,48.0,-100.00,West,259,0.0,0.0,96,0.00,,,0.00,41.000000,,2013-07-12 15:01:00,
2013-07-12 08:11:00,49.0,48.0,-100.00,West,259,0.0,0.0,96,0.00,,,0.00,41.000000,,2013-07-12 15:11:00,
2013-07-12 08:22:00,49.0,48.0,-100.00,West,259,0.0,0.0,96,0.00,,,0.00,41.000000,,2013-07-12 15:22:00,
2013-07-12 09:01:00,50.0,49.0,-100.00,WNW,297,0.0,0.0,96,0.00,,,0.00,129.000000,,2013-07-12 16:01:00,
2013-07-12 09:11:00,50.0,49.0,-100.00,WNW,297,0.0,0.0,96,0.00,,,0.00,129.000000,,2013-07-12 16:11:00,
2013-07-12 09:22:00,50.0,49.0,-100.00,WNW,297,0.0,0.0,96,0.00,,,0.00,129.000000,,2013-07-12 16:22:00,
2013-07-12 09:32:00,50.0,49.0,-100.00,WNW,297,0.0,0.0,96,0.00,,,0.00,129.000000,,2013-07-12 16:32:00,
2013-07-12 09:33:00,53.0,52.0,-100.00,NW,319,0.0,0.0,95,0.00,,,0.00,252.000000,,2013-07-12 16:33:00,
2013-07-12 09:58:00,53.0,52.0,-100.00,NW,319,0.0,0.0,95,0.00,,,0.00,252.000000,,2013-07-12 16:58:00,
2013-07-12 10:04:00,53.0,52.0,-100.00,NW,319,0.0,0.0,95,0.00,,,0.00,252.000000,,2013-07-12 17:04:00,
2013-07-12 10:12:00,53.0,52.0,-100.00,NW,319,0.0,0.0,95,0.00,,,0.00,252.000000,,2013-07-12 17:12:00,
2013-07-12 10:22:00,53.0,52.0,-100.00,NW,319,0.0,0.0,95,0.00,,,0.00,252.000000,,2013-07-12 17:22:00,
2013-07-12 10:33:00,60.0,49.0,-100.00,SSE,158,1.0,8.0,68,0.00,,,0.00,548.000000,,2013-07-12 17:33:00,
2013-07-12 10:55:00,60.0,49.0,-100.00,SSE,158,1.0,8.0,68,0.00,,,0.00,548.000000,,2013-07-12 17:55:00,
2013-07-12 11:04:00,60.0,49.0,-100.00,SSE,158,1.0,8.0,68,0.00,,,0.00,548.000000,,2013-07-12 18:04:00,
2013-07-12 11:23:00,60.0,49.0,-100.00,SSE,158,1.0,8.0,68,0.00,,,0.00,548.000000,,2013-07-12 18:23:00,
2013-07-12 11:56:00,64.0,50.0,-100.00,SE,127,0.0,11.0,61,0.00,,,0.00,824.000000,,2013-07-12 18:56:00,
2013-07-12 12:03:00,64.0,50.0,-100.00,SE,127,0.0,11.0,61,0.00,,,0.00,824.000000,,2013-07-12 19:03:00,
2013-07-12 12:13:00,64.0,50.0,-100.00,SE,127,0.0,11.0,61,0.00,,,0.00,824.000000,,2013-07-12 19:13:00,
2013-07-12 12:22:00,64.0,50.0,-100.00,SE,127,0.0,11.0,61,0.00,,,0.00,824.000000,,2013-07-12 19:22:00,
2013-07-12 12:32:00,64.0,50.0,-100.00,SE,127,0.0,11.0,61,0.00,,,0.00,824.000000,,2013-07-12 19:32:00,
2013-07-12 12:33:00,66.0,51.0,-100.00,SE,136,0.0,12.0,59,0.00,,,0.00,923.000000,,2013-07-12 19:33:00,
2013-07-12 13:02:00,66.0,51.0,-100.00,SE,136,0.0,12.0,59,0.00,,,0.00,923.000000,,2013-07-12 20:02:00,
2013-07-12 13:22:00,66.0,51.0,-100.00,SE,136,0.0,12.0,59,0.00,,,0.00,923.000000,,2013-07-12 20:22:00,
2013-07-12 13:33:00,73.0,52.0,-100.00,SSW,194,0.0,9.0,47,0.00,,,0.00,971.000000,,2013-07-12 20:33:00,
2013-07-12 14:02:00,73.0,52.0,-100.00,SSW,194,0.0,9.0,47,0.00,,,0.00,971.000000,,2013-07-12 21:02:00,
2013-07-12 14:14:00,73.0,52.0,-100.00,SSW,194,0.0,9.0,47,0.00,,,0.00,971.000000,,2013-07-12 21:14:00,
2013-07-12 14:23:00,73.0,52.0,-100.00,SSW,194,0.0,9.0,47,0.00,,,0.00,971.000000,,2013-07-12 21:23:00,
2013-07-12 15:02:00,77.0,51.0,-100.00,SSW,206,0.0,10.0,40,0.00,,,0.00,968.000000,,2013-07-12 22:02:00,
2013-07-12 15:14:00,77.0,51.0,-100.00,SSW,206,0.0,10.0,40,0.00,,,0.00,968.000000,,2013-07-12 22:14:00,
2013-07-12 15:22:00,77.0,51.0,-100.00,SSW,206,0.0,10.0,40,0.00,,,0.00,968.000000,,2013-07-12 22:22:00,
2013-07-12 15:32:00,77.0,51.0,-100.00,SSW,206,0.0,10.0,40,0.00,,,0.00,968.000000,,2013-07-12 22:32:00,
2013-07-12 15:55:00,79.0,51.0,-100.00,WSW,246,1.0,12.0,38,0.00,,,0.00,913.000000,,2013-07-12 22:55:00,
2013-07-12 16:03:00,79.0,51.0,-100.00,WSW,246,1.0,12.0,38,0.00,,,0.00,913.000000,,2013-07-12 23:03:00,
2013-07-12 16:22:00,79.0,51.0,-100.00,WSW,246,1.0,12.0,38,0.00,,,0.00,913.000000,,2013-07-12 23:22:00,
2013-07-12 16:32:00,79.0,51.0,-100.00,WSW,246,1.0,12.0,38,0.00,,,0.00,913.000000,,2013-07-12 23:32:00,
2013-07-12 16:57:00,74.0,47.0,-100.00,West,276,0.0,17.0,38,0.00,,,0.00,806.000000,,2013-07-12 23:57:00,
2013-07-12 17:03:00,74.0,47.0,-100.00,West,276,0.0,17.0,38,0.00,,,0.00,806.000000,,2013-07-13 00:03:00,
2013-07-12 17:23:00,74.0,47.0,-100.00,West,276,0.0,17.0,38,0.00,,,0.00,806.000000,,2013-07-13 00:23:00,
2013-07-12 17:32:00,74.0,47.0,-100.00,West,276,0.0,17.0,38,0.00,,,0.00,806.000000,,2013-07-13 00:32:00,
2013-07-12 18:02:00,73.0,47.0,-100.00,West,280,0.0,14.0,39,0.00,,,0.00,656.000000,,2013-07-13 01:02:00,
2013-07-12 18:11:00,73.0,47.0,-100.00,West,280,0.0,14.0,39,0.00,,,0.00,656.000000,,2013-07-13 01:11:00,
2013-07-12 18:22:00,73.0,47.0,-100.00,West,280,0.0,14.0,39,0.00,,,0.00,656.000000,,2013-07-13 01:22:00,
2013-07-12 18:32:00,73.0,47.0,-100.00,West,280,0.0,14.0,39,0.00,,,0.00,656.000000,,2013-07-13 01:32:00,
2013-07-12 18:33:00,69.0,46.0,-100.00,West,281,1.0,14.0,44,0.00,,,-99.99,474.000000,,2013-07-13 01:33:00,
2013-07-12 18:56:00,69.0,46.0,-100.00,West,281,1.0,14.0,44,0.00,,,-99.99,474.000000,,2013-07-13 01:56:00,
2013-07-12 19:04:00,69.0,46.0,-100.00,West,281,1.0,14.0,44,0.00,,,-99.99,474.000000,,2013-07-13 02:04:00,
2013-07-12 19:13:00,69.0,46.0,-100.00,West,281,1.0,14.0,44,0.00,,,-99.99,474.000000,,2013-07-13 02:13:00,
2013-07-12 19:22:00,69.0,46.0,-100.00,West,281,1.0,14.0,44,0.00,,,-99.99,474.000000,,2013-07-13 02:22:00,
2013-07-12 19:33:00,67.0,46.0,-100.00,WNW,294,0.0,8.0,47,0.00,,,0.00,281.000000,,2013-07-13 02:33:00,
2013-07-12 19:55:00,67.0,46.0,-100.00,WNW,294,0.0,8.0,47,0.00,,,0.00,281.000000,,2013-07-13 02:55:00,
2013-07-12 20:12:00,67.0,46.0,-100.00,WNW,294,0.0,8.0,47,0.00,,,0.00,281.000000,,2013-07-13 03:12:00,
2013-07-12 20:23:00,67.0,46.0,-100.00,WNW,294,0.0,8.0,47,0.00,,,0.00,281.000000,,2013-07-13 03:23:00,
2013-07-12 20:57:00,61.0,46.0,-100.00,North,355,0.0,3.0,57,0.00,,,0.00,88.000000,,2013-07-13 03:57:00,
2013-07-12 21:01:00,61.0,46.0,-100.00,North,355,0.0,3.0,57,0.00,,,0.00,88.000000,,2013-07-13 04:01:00,
2013-07-12 21:11:00,61.0,46.0,-100.00,North,355,0.0,3.0,57,0.00,,,0.00,88.000000,,2013-07-13 04:11:00,
2013-07-12 21:22:00,61.0,46.0,-100.00,North,355,0.0,3.0,57,0.00,,,0.00,88.000000,,2013-07-13 04:22:00,
2013-07-12 21:32:00,61.0,46.0,-100.00,North,355,0.0,3.0,57,0.00,,,0.00,88.000000,,2013-07-13 04:32:00,
2013-07-12 22:01:00,59.0,46.0,-100.00,NNW,327,0.0,0.0,61,0.00,,,0.00,2.000000,,2013-07-13 05:01:00,
2013-07-12 22:11:00,59.0,46.0,-100.00,NNW,327,0.0,0.0,61,0.00,,,0.00,2.000000,,2013-07-13 05:11:00,
2013-07-12 22:21:00,59.0,46.0,-100.00,NNW,327,0.0,0.0,61,0.00,,,0.00,2.000000,,2013-07-13 05:21:00,
2013-07-12 22:32:00,59.0,46.0,-100.00,NNW,327,0.0,0.0,61,0.00,,,0.00,2.000000,,2013-07-13 05:32:00,
2013-07-12 22:52:00,57.0,46.0,-100.00,SE,139,0.0,0.0,67,0.00,,,0.00,0.000000,,2013-07-13 05:52:00,
2013-07-12 23:01:00,57.0,46.0,-100.00,SE,139,0.0,0.0,67,0.00,,,0.00,0.000000,,2013-07-13 06:01:00,
2013-07-12 23:11:00,57.0,46.0,-100.00,SE,139,0.0,0.0,67,0.00,,,0.00,0.000000,,2013-07-13 06:11:00,
2013-07-12 23:22:00,57.0,46.0,-100.00,SE,139,0.0,0.0,67,0.00,,,0.00,0.000000,,2013-07-13 06:22:00,
2013-07-12 23:32:00,57.0,46.0,-100.00,SE,139,0.0,0.0,67,0.00,,,0.00,0.000000,,2013-07-13 06:32:00,
2013-07-12 23:52:00,59.0,45.0,-100.00,NW,305,8.0,12.0,60,0.00,,,0.00,1.000000,,2013-07-13 06:52:00,